[[{"header":{"parameterUnit":"m.s-1","parameterCategory":1,"la1":30.2991,"la2":30.254,"lo1":-89.0895,"lo2":-89.0444,"dy":0.0017,"dx":0.0017,"nx":28,"ny":28,"refTime":"2025-03-05T03:00:00:Z","depth":0,"parameterNumber":2,"parameterNumberName":"U-component_of_WINDS"},"data":[0,0,0,0,0,0,0,0,0,0,0,0,0,0,0,0,0,0,0,0,0,0,0,0,0,0,0,0,0,0,0,0,0,0,0,0,0,0,0,0,0,0,0,0,0,0,0,0,0,0,0,0,0,0,0,0,0,0,-5.0249,-5.025,0,-5.035,-5.0351,-5.0352,-5.0384,-5.0384,-5.0383,-5.0383,-5.0485,-5.0488,-5.0491,0,0,0,0,0,0,0,0,0,0,0,0,0,-5.0083,-5.0086,-5.0249,-5.025,-5.0251,-5.035,-5.0351,-5.0352,-5.0384,-5.0384,-5.0383,-5.0383,-5.0484,-5.0488,-5.0491,0,0,0,0,0,0,0,0,0,0,0,0,0,-5.0166,-5.0087,-5.0249,-5.0279,-5.0283,-5.0349,-5.0351,-5.0353,-5.0384,-5.0384,-5.0383,-5.0382,-5.0483,-5.0487,-5.0492,-5.0535,0,0,-5.0506,-5.0508,0,0,0,0,0,0,0,0,-5.0162,-5.0173,-5.0273,-5.0277,-5.0281,-5.0354,-5.033,-5.0414,-5.0385,-5.0346,-5.0383,-5.0382,-5.0442,-5.045,-5.047,-5.054,-5.0544,-5.0507,-5.051,-5.0512,-5.0513,0,0,0,0,0,0,0,-5.0156,-5.0168,-5.0289,-5.0275,-5.028,-5.0288,-5.0299,-5.0346,-5.0396,-5.0349,-5.0352,-5.0363,-5.0444,-5.0466,-5.0473,-5.0546,-5.0507,-5.0511,-5.0514,-5.0515,-5.0655,-5.0656,0,0,0,0,0,0,-5.0145,-5.0163,-5.0286,-5.0292,-5.0219,-5.0291,-5.0304,-5.0331,-5.0396,-5.0405,-5.0364,-5.0364,-5.0458,-5.0467,-5.0476,-5.0531,-5.0512,-5.0516,-5.0519,-5.0655,-5.0656,-5.0657,0,0,0,0,0,0,-5.0141,-5.0156,-5.0282,-5.0228,-5.0245,-5.0295,-5.0326,-5.0334,-5.0355,-5.0407,-5.0416,-5.0377,-5.0458,-5.047,-5.052,-5.0535,-5.0518,-5.0522,-5.0653,-5.0655,-5.0656,-5.064,0,0,0,0,0,0,-5.0136,-5.0154,-5.0171,-5.0229,-5.0248,-5.0324,-5.0327,-5.0336,-5.0364,-5.0365,-5.0422,-5.043,-5.0458,-5.0513,-5.0525,-5.0541,-5.0526,-5.0652,-5.0654,-5.0656,-5.0639,-5.064,-5.0641,0,0,0,0,0,-5.013,-5.0162,-5.0172,-5.0186,-5.027,-5.0324,-5.0335,-5.0367,-5.0365,-5.0382,-5.0415,-5.0428,-5.0532,-5.0518,-5.0532,-5.0549,-5.0652,-5.0654,-5.0656,-5.0639,-5.064,-5.0641,0,0,0,0,0,0,-5.0105,-5.017,-5.0182,-5.0233,-5.0273,-5.033,-5.0352,-5.0368,-5.0409,-5.0408,-5.0446,-5.0458,-5.0506,-5.0533,-5.0516,-5.0594,-5.0592,-5.0597,-5.0575,-5.0576,-5.0578,-5.0569,-5.053,0,0,0,0,0,-5.0105,-5.0144,-5.0199,-5.0239,-5.0259,-5.0302,-5.0327,-5.0348,-5.0391,-5.0408,-5.0445,-5.0485,-5.0527,-5.0553,-5.0595,-5.0644,-5.0656,-5.0663,-5.0664,-5.0665,-5.0668,-5.0696,-5.0699,-5.0663,-5.0663,-5.0663,0,0,-5.0106,-5.0147,-5.0169,-5.0235,-5.0269,-5.0308,-5.0316,-5.0357,-5.0387,-5.0414,-5.0464,-5.0492,-5.054,-5.059,-5.0614,-5.0614,-5.0681,-5.0667,-5.0667,-5.067,-5.0698,-5.0701,-5.0704,-5.0664,-5.0664,-5.0664,0,0,-5.0128,-5.0163,-5.02,-5.0233,-5.0284,-5.0313,-5.0322,-5.0377,-5.0397,-5.0447,-5.0469,-5.0504,-5.0575,-5.0608,-5.0634,-5.0669,-5.0683,-5.0682,-5.0687,-5.0714,-5.0716,-5.0719,-5.0731,-5.0735,-5.0685,-5.0685,-5.0685,0,-5.0122,-5.0182,-5.0217,-5.0257,-5.0285,-5.0313,-5.035,-5.0381,-5.0442,-5.0461,-5.0461,-5.0551,-5.0585,-5.0643,-5.0651,-5.0672,-5.0683,-5.0675,-5.0713,-5.0716,-5.0719,-5.0731,-5.0735,-5.0685,-5.0685,-5.0685,-5.0685,0,-5.0173,-5.0215,-5.0238,-5.0297,-5.0328,-5.0367,-5.0407,-5.0434,-5.0453,-5.0482,-5.0533,-5.0575,-5.0625,-5.0641,-5.0659,-5.0702,-5.07,-5.0706,-5.0704,-5.0722,-5.0733,-5.0738,-5.0684,-5.0684,-5.0684,-5.0684,0,0,-5.018,-5.0258,-5.0266,-5.0293,-5.0352,-5.0384,-5.0424,-5.0474,-5.0496,-5.0538,-5.0572,-5.0632,-5.0638,-5.0668,-5.069,-5.0714,-5.0738,-5.0717,-5.0719,-5.0719,-5.0787,-5.0781,-5.0785,-5.0748,-5.0749,-5.075,-5.0782,0,-5.0208,-5.0281,-5.0313,-5.0371,-5.041,-5.0437,-5.0471,-5.0511,-5.0539,-5.0576,-5.0607,-5.0648,-5.0654,-5.0672,-5.0696,-5.073,-5.0752,-5.0728,-5.0779,-5.0781,-5.0765,-5.0792,-5.0786,-5.0814,-5.0787,-5.0788,-5.0788,0,-5.0251,-5.0293,-5.0354,-5.0408,-5.0426,-5.0456,-5.0504,-5.0539,-5.0585,-5.0604,-5.0637,-5.0659,-5.0702,-5.0698,-5.0757,-5.074,-5.0764,-5.0783,-5.0785,-5.079,-5.0785,-5.0796,-5.0824,-5.0828,-5.0796,-5.0795,-5.0795,0,-5.0249,-5.0321,-5.0367,-5.0389,-5.0454,-5.0475,-5.0502,-5.0547,-5.0575,-5.0617,-5.0635,-5.0682,-5.0707,-5.0742,-5.0776,-5.077,-5.0832,-5.0831,-5.0848,-5.0847,-5.0858,-5.0857,-5.0889,-5.0875,-5.0875,-5.0875,-5.0875,0,-5.0276,-5.0312,-5.0367,-5.0395,-5.0437,-5.0474,-5.0514,-5.0544,-5.0583,-5.0618,-5.0644,-5.0676,-5.0719,-5.0756,-5.0783,-5.0827,-5.0839,-5.0855,-5.0861,-5.0852,-5.085,-5.0867,-5.0865,-5.0876,-5.0876,-5.0876,-5.0875,0,-5.028,-5.0318,-5.037,-5.0427,-5.0442,-5.047,-5.0519,-5.0547,-5.0577,-5.062,-5.0632,-5.0679,-5.0724,-5.0762,-5.0821,-5.0839,-5.0885,-5.0893,-5.087,-5.0873,-5.0887,-5.0885,-5.0931,-5.0938,-5.092,-5.092,-5.092,0,-5.0294,-5.0323,-5.0383,-5.0408,-5.0436,-5.0476,-5.0504,-5.0542,-5.0571,-5.0625,-5.0647,-5.0694,-5.0733,-5.0804,-5.0843,-5.0889,-5.0898,-5.091,-5.0904,-5.0894,-5.0897,-5.0894,-5.0897,-5.091,-5.091,-5.091,-5.091,0,-5.0316,-5.0333,-5.0374,-5.0421,-5.0454,-5.0493,-5.0532,-5.0551,-5.0596,-5.0627,-5.0674,-5.0705,-5.0765,-5.0812,-5.0861,-5.089,-5.0907,-5.0912,-5.0918,-5.0908,-5.0893,-5.0901,-5.087,-5.0911,-5.0911,-5.0911,-5.0911,-5.0911,-5.0325,-5.0352,-5.0398,-5.0442,-5.0476,-5.0512,-5.0542,-5.0576,-5.0615,-5.0668,-5.0688,-5.0735,-5.078,-5.0849,-5.0878,-5.0915,-5.0918,-5.0927,-5.0929,-5.093,-5.0928,-5.0888,-5.0925,-5.0925,-5.0925,-5.0925,-5.0925,0,-5.0347,-5.0379,-5.0419,-5.0473,-5.0508,-5.0522,-5.0567,-5.0595,-5.0636,-5.0677,-5.0716,-5.0769,-5.0814,-5.0857,-5.0905,-5.0927,-5.0936,-5.0938,-5.0936,-5.0942,-5.0924,-5.0914,-5.0929,-5.0929,-5.0929,-5.0929,-5.0929,-5.0929,-5.0363,-5.0408,-5.0431,-5.0494,-5.0526,-5.0572,-5.0597,-5.063,-5.0663,-5.0722,-5.0759,-5.0787,-5.0829,-5.088,-5.0922,-5.0933,-5.0949,-5.0949,-5.0962,-5.0944,-5.0943,-5.0942,-5.0933,-5.0952,-5.0952,-5.0977,-5.0977,-5.0977]},{"header":{"parameterUnit":"m.s-1","parameterCategory":1,"la1":30.2991,"la2":30.254,"lo1":-89.0895,"lo2":-89.0444,"dy":0.0017,"dx":0.0017,"nx":28,"ny":28,"refTime":"2025-03-05T03:00:00:Z","depth":0,"parameterNumber":3,"parameterNumberName":"V-component_of_WINDS"},"data":[0,0,0,0,0,0,0,0,0,0,0,0,0,0,0,0,0,0,0,0,0,0,0,0,0,0,0,0,0,0,0,0,0,0,0,0,0,0,0,0,0,0,0,0,0,0,0,0,0,0,0,0,0,0,0,0,0,0,8.0025,8.0026,0,8.0061,8.0062,8.0062,8.0049,8.0048,8.0047,8.0046,8.008,8.0082,8.0083,0,0,0,0,0,0,0,0,0,0,0,0,0,7.9943,7.9945,8.0025,8.0026,8.0026,8.0061,8.0062,8.0062,8.0049,8.0048,8.0047,8.0046,8.008,8.0082,8.0084,0,0,0,0,0,0,0,0,0,0,0,0,0,7.9979,7.9945,8.0025,8.0024,8.0024,8.0061,8.0062,8.0062,8.0049,8.0048,8.0047,8.0046,8.0079,8.0081,8.0084,8.0124,0,0,8.0091,8.0093,0,0,0,0,0,0,0,0,7.9977,7.9982,8.0024,8.0024,8.0024,8.0049,8.0045,8.0083,8.0049,8.004,8.0046,8.0045,8.0071,8.0074,8.0083,8.0125,8.0127,8.0092,8.0093,8.0094,8.0095,0,0,0,0,0,0,0,7.9974,7.998,8.0039,8.0024,8.0025,8.0021,8.0025,8.0052,8.0061,8.004,8.0039,8.0044,8.0071,8.0081,8.0084,8.0127,8.0092,8.0094,8.0095,8.0096,8.0206,8.0207,0,0,0,0,0,0,7.9972,7.9978,8.0038,8.0041,7.9997,8.0023,8.0028,8.0043,8.0061,8.0063,8.0045,8.0043,8.0077,8.0081,8.0085,8.0135,8.0094,8.0097,8.0098,8.0205,8.0206,8.0208,0,0,0,0,0,0,7.997,7.9978,8.0037,8.0009,8.0017,8.0026,8.0043,8.0044,8.0054,8.0065,8.0066,8.0054,8.0076,8.0081,8.0115,8.0136,8.0098,8.01,8.0203,8.0205,8.0207,8.0234,0,0,0,0,0,0,7.9968,7.9977,7.9992,8.001,8.0018,8.0067,8.0044,8.0045,8.0059,8.0057,8.0073,8.0075,8.0076,8.0111,8.0117,8.0139,8.0102,8.0201,8.0204,8.0207,8.0231,8.0237,8.0242,0,0,0,0,0,7.9965,7.9997,7.9993,8.0001,8.0038,8.0068,8.0073,8.0074,8.006,8.0076,8.0083,8.0074,8.0132,8.0115,8.0122,8.0144,8.02,8.0203,8.0206,8.0229,8.0236,8.0241,0,0,0,0,0,0,7.998,7.9999,7.9995,8.0034,8.005,8.0066,8.0086,8.0081,8.01,8.0097,8.0096,8.01,8.0136,8.0142,8.0123,8.0185,8.0164,8.0169,8.0179,8.0185,8.019,8.0189,8.0104,0,0,0,0,0,7.9989,8.0013,8.0027,8.006,8.0068,8.0076,8.0089,8.0089,8.0104,8.0111,8.012,8.0135,8.0157,8.0171,8.0191,8.0232,8.0236,8.0251,8.0256,8.026,8.0264,8.0289,8.0296,8.0219,8.0219,8.0218,0,0,8.0005,8.0018,8.0033,8.0064,8.0076,8.0101,8.0081,8.0107,8.0126,8.0114,8.0148,8.0155,8.0172,8.021,8.0227,8.0217,8.0287,8.0264,8.0267,8.027,8.0293,8.03,8.0307,8.0221,8.022,8.022,0,0,8.0049,8.006,8.0091,8.0104,8.0123,8.0128,8.0136,8.0153,8.0158,8.0192,8.0184,8.0205,8.0242,8.0255,8.0267,8.0318,8.0311,8.0324,8.0351,8.0375,8.0381,8.0386,8.0407,8.0414,8.0328,8.0328,8.0328,0,8.0067,8.0105,8.0106,8.0135,8.0149,8.0141,8.0172,8.0184,8.0208,8.0218,8.0207,8.0255,8.0265,8.0307,8.032,8.0329,8.0338,8.0323,8.038,8.0386,8.0391,8.041,8.0418,8.033,8.033,8.0329,8.0329,0,8.0128,8.0154,8.0176,8.0202,8.0218,8.0247,8.0253,8.027,8.0268,8.0274,8.031,8.0322,8.0346,8.0355,8.0353,8.0398,8.0392,8.038,8.036,8.04,8.0418,8.0426,8.0332,8.0332,8.0331,8.0331,0,0,8.0182,8.021,8.0219,8.0232,8.0253,8.0273,8.0302,8.0328,8.0343,8.0359,8.0385,8.0417,8.0408,8.0421,8.042,8.044,8.0483,8.0426,8.0427,8.0439,8.0535,8.0546,8.0554,8.0478,8.0479,8.048,8.0535,0,8.0229,8.0283,8.0286,8.0333,8.0359,8.0352,8.0378,8.0394,8.04,8.0422,8.0429,8.0453,8.0437,8.0446,8.0465,8.0473,8.0503,8.0469,8.0502,8.0503,8.0501,8.0563,8.0574,8.0625,8.0542,8.0543,8.0544,0,8.0292,8.0314,8.0365,8.0386,8.0396,8.0419,8.0444,8.0465,8.0483,8.0486,8.0502,8.0499,8.0529,8.0507,8.0549,8.0526,8.0539,8.0545,8.0547,8.0552,8.0528,8.0572,8.0641,8.065,8.0555,8.0554,8.0553,0,8.033,8.0372,8.0409,8.042,8.0444,8.0461,8.0471,8.0488,8.0504,8.0524,8.0535,8.0558,8.0571,8.0589,8.0592,8.0575,8.0635,8.0613,8.064,8.064,8.0655,8.0654,8.0729,8.0659,8.0659,8.0659,8.0659,0,8.0385,8.0417,8.0427,8.045,8.0486,8.0489,8.0524,8.0533,8.0549,8.0573,8.0567,8.059,8.0592,8.0616,8.0618,8.0654,8.0659,8.0663,8.0664,8.0666,8.0665,8.0676,8.0673,8.0661,8.0661,8.066,8.066,0,8.0434,8.0442,8.0482,8.0502,8.0508,8.0534,8.0551,8.0573,8.0579,8.0611,8.0618,8.0628,8.0655,8.066,8.0692,8.0694,8.0737,8.0733,8.0732,8.0732,8.0761,8.0759,8.0847,8.0859,8.0779,8.078,8.078,0,8.047,8.0495,8.0518,8.0535,8.0547,8.0574,8.0591,8.0594,8.0612,8.0635,8.0655,8.0682,8.0704,8.0749,8.0758,8.0783,8.0781,8.081,8.0785,8.0786,8.0785,8.0784,8.0788,8.0816,8.0816,8.0817,8.0818,0,8.0532,8.0536,8.0561,8.0588,8.0609,8.063,8.0649,8.0663,8.0669,8.0689,8.0718,8.0736,8.077,8.0798,8.0823,8.0832,8.0827,8.0825,8.0834,8.0836,8.0836,8.0839,8.0748,8.0824,8.0823,8.0823,8.0822,8.0822,8.0578,8.0601,8.0622,8.0651,8.0667,8.0686,8.0708,8.0718,8.0743,8.0773,8.0772,8.0805,8.0823,8.0857,8.0869,8.0894,8.0885,8.0896,8.0899,8.0902,8.0907,8.083,8.0898,8.0898,8.0898,8.0897,8.0897,0,8.0643,8.0657,8.0683,8.0713,8.0735,8.0728,8.075,8.077,8.0799,8.0817,8.084,8.0875,8.0902,8.0914,8.0941,8.0959,8.0958,8.0966,8.0966,8.0969,8.0912,8.0904,8.0968,8.0968,8.0968,8.0968,8.0968,8.0968,8.068,8.072,8.0726,8.0773,8.0786,8.082,8.0833,8.0851,8.0866,8.0906,8.0929,8.0937,8.0953,8.0982,8.1007,8.1009,8.1021,8.1031,8.1033,8.098,8.0973,8.0966,8.0959,8.1033,8.1033,8.1089,8.1089,8.109]}]]